Year,Month,Day,Hour,Minute,Value (Times are PST for temperature in C)
2010,02,22,08,24,0.40
2010,02,22,08,25,0.50
2010,02,22,08,26,0.60
2010,02,22,08,27,0.70
2010,02,22,08,28,0.70
2010,02,22,08,29,0.90
2010,02,22,08,30,0.90
2010,02,22,08,31,1.00
2010,02,22,08,32,1.00
2010,02,22,08,33,1.10
2010,02,22,08,34,1.10
2010,02,22,08,35,1.20
2010,02,22,08,36,1.30
2010,02,22,08,37,1.30
2010,02,22,08,38,1.30
2010,02,22,08,39,1.40
2010,02,22,08,40,1.40
2010,02,22,08,41,1.50
2010,02,22,08,42,1.50
2010,02,22,08,43,1.50
2010,02,22,08,44,1.60
2010,02,22,08,45,1.60
2010,02,22,08,46,1.60
2010,02,22,08,47,1.60
2010,02,22,08,48,1.60
2010,02,22,08,49,1.60
2010,02,22,08,50,1.70
2010,02,22,08,51,1.70
2010,02,22,08,52,1.70
2010,02,22,08,53,1.70
2010,02,22,08,54,1.80
2010,02,22,08,55,1.80
2010,02,22,08,56,1.90
2010,02,22,08,57,2.00
2010,02,22,08,58,2.10
2010,02,22,08,59,2.10
2010,02,22,09,00,2.20
2010,02,22,09,01,2.20
2010,02,22,09,02,2.20
2010,02,22,09,03,2.20
2010,02,22,09,04,2.30
2010,02,22,09,05,2.30
2010,02,22,09,06,2.50
2010,02,22,09,07,2.60
2010,02,22,09,08,2.70
2010,02,22,09,09,2.70
2010,02,22,09,10,2.70
2010,02,22,09,11,2.80
2010,02,22,09,12,2.90
2010,02,22,09,13,3.00
2010,02,22,09,14,3.10
2010,02,22,09,15,3.30
2010,02,22,09,16,3.30
2010,02,22,09,17,3.40
2010,02,22,09,18,3.50
2010,02,22,09,19,3.50
2010,02,22,09,20,3.50
2010,02,22,09,21,3.40
2010,02,22,09,22,3.50
2010,02,22,09,23,3.60
2010,02,22,09,24,3.60
2010,02,22,09,25,3.70
2010,02,22,09,26,3.80
2010,02,22,09,27,3.90
2010,02,22,09,28,3.90
2010,02,22,09,29,4.00
2010,02,22,09,30,4.00
2010,02,22,09,31,4.10
2010,02,22,09,32,4.10
2010,02,22,09,33,4.20
2010,02,22,09,34,4.30
2010,02,22,09,35,4.30
2010,02,22,09,36,4.40
2010,02,22,09,37,4.50
2010,02,22,09,38,4.50
2010,02,22,09,39,4.60
2010,02,22,09,40,4.60
2010,02,22,09,41,4.60
2010,02,22,09,42,4.70
2010,02,22,09,43,4.70
2010,02,22,09,44,4.80
2010,02,22,09,45,4.80
2010,02,22,09,46,4.90
2010,02,22,09,47,4.90
2010,02,22,09,48,5.00
2010,02,22,09,49,5.00
2010,02,22,09,50,5.00
2010,02,22,09,51,5.10
2010,02,22,09,52,5.20
2010,02,22,09,53,5.20
2010,02,22,09,54,5.30
2010,02,22,09,55,5.40
2010,02,22,09,56,5.40
2010,02,22,09,57,5.50
2010,02,22,09,58,5.50
2010,02,22,09,59,5.50
2010,02,22,10,00,5.50
2010,02,22,10,01,5.50
2010,02,22,10,02,5.50
2010,02,22,10,03,5.50
2010,02,22,10,04,5.50
2010,02,22,10,05,5.50
2010,02,22,10,06,5.60
2010,02,22,10,07,5.60
2010,02,22,10,08,5.70
2010,02,22,10,09,5.70
2010,02,22,10,10,5.80
2010,02,22,10,11,5.80
2010,02,22,10,12,5.80
2010,02,22,10,13,5.90
2010,02,22,10,14,5.90
2010,02,22,10,15,5.90
2010,02,22,10,16,6.00
2010,02,22,10,17,6.00
2010,02,22,10,18,6.10
2010,02,22,10,19,6.20
2010,02,22,10,20,6.20
2010,02,22,10,21,6.20
2010,02,22,10,22,6.30
2010,02,22,10,23,6.30
2010,02,22,10,24,6.40
2010,02,22,10,25,6.40
2010,02,22,10,26,6.40
2010,02,22,10,27,6.50
2010,02,22,10,28,6.50
2010,02,22,10,29,6.50
2010,02,22,10,30,6.40
2010,02,22,10,31,6.40
2010,02,22,10,32,6.40
2010,02,22,10,33,6.40
2010,02,22,10,34,6.40
2010,02,22,10,35,6.50
2010,02,22,10,36,6.50
2010,02,22,10,37,6.60
2010,02,22,10,38,6.60
2010,02,22,10,39,6.60
2010,02,22,10,40,6.70
2010,02,22,10,41,6.70
2010,02,22,10,42,6.70
2010,02,22,10,43,6.70
2010,02,22,10,44,6.80
2010,02,22,10,45,6.80
2010,02,22,10,46,6.90
2010,02,22,10,47,6.90
2010,02,22,10,48,6.90
2010,02,22,10,49,6.90
2010,02,22,10,50,6.90
2010,02,22,10,51,6.90
2010,02,22,10,52,6.90
2010,02,22,10,53,6.90
2010,02,22,10,54,6.90
2010,02,22,10,55,7.00
2010,02,22,10,56,7.00
2010,02,22,10,57,7.00
2010,02,22,10,58,7.10
2010,02,22,10,59,7.10
2010,02,22,11,00,7.10
2010,02,22,11,01,7.20
2010,02,22,11,02,7.20
2010,02,22,11,03,7.20
2010,02,22,11,04,7.30
2010,02,22,11,05,7.30
2010,02,22,11,06,7.30
2010,02,22,11,07,7.30
2010,02,22,11,08,7.30
2010,02,22,11,09,7.30
2010,02,22,11,10,7.40
2010,02,22,11,11,7.40
2010,02,22,11,12,7.40
2010,02,22,11,13,7.40
2010,02,22,11,14,7.40
2010,02,22,11,15,7.40
2010,02,22,11,16,7.50
2010,02,22,11,17,7.50
2010,02,22,11,18,7.40
2010,02,22,11,19,7.50
2010,02,22,11,20,7.50
2010,02,22,11,21,7.50
2010,02,22,11,22,7.60
2010,02,22,11,23,7.60
2010,02,22,11,24,7.60
2010,02,22,11,25,7.60
2010,02,22,11,26,7.60
2010,02,22,11,27,7.60
2010,02,22,11,28,7.60
2010,02,22,11,29,7.60
2010,02,22,11,30,7.60
2010,02,22,11,31,7.70
2010,02,22,11,32,7.70
2010,02,22,11,33,7.70
2010,02,22,11,34,7.80
2010,02,22,11,35,7.80
2010,02,22,11,36,7.80
2010,02,22,11,37,7.80
2010,02,22,11,38,7.80
2010,02,22,11,39,7.80
2010,02,22,11,40,7.80
2010,02,22,11,41,7.80
2010,02,22,11,42,7.90
2010,02,22,11,43,7.90
2010,02,22,11,44,8.00
2010,02,22,11,45,8.00
2010,02,22,11,46,8.00
2010,02,22,11,47,8.00
2010,02,22,11,48,8.00
2010,02,22,11,49,8.00
2010,02,22,11,50,8.00
2010,02,22,11,51,8.00
2010,02,22,11,52,8.00
2010,02,22,11,53,8.00
2010,02,22,11,54,8.10
2010,02,22,11,55,8.10
2010,02,22,11,56,8.10
2010,02,22,11,57,8.10
2010,02,22,11,58,8.10
2010,02,22,11,59,8.10
2010,02,22,12,00,8.20
2010,02,22,12,01,8.20
2010,02,22,12,02,8.20
2010,02,22,12,03,8.30
2010,02,22,12,04,8.30
2010,02,22,12,05,8.30
2010,02,22,12,06,8.30
2010,02,22,12,07,8.30
2010,02,22,12,08,8.20
2010,02,22,12,09,8.20
2010,02,22,12,10,8.20
2010,02,22,12,11,8.20
2010,02,22,12,12,8.20
2010,02,22,12,13,8.20
2010,02,22,12,14,8.20
2010,02,22,12,15,8.20
2010,02,22,12,16,8.20
2010,02,22,12,17,8.20
2010,02,22,12,18,8.20
2010,02,22,12,19,8.20
2010,02,22,12,20,8.30
2010,02,22,12,21,8.30
2010,02,22,12,22,8.30
2010,02,22,12,23,8.30
2010,02,22,12,24,8.40
2010,02,22,12,25,8.40
2010,02,22,12,26,8.50
2010,02,22,12,27,8.50
2010,02,22,12,28,8.50
2010,02,22,12,29,8.60
2010,02,22,12,30,8.60
2010,02,22,12,31,8.70
2010,02,22,12,32,8.70
2010,02,22,12,33,8.70
2010,02,22,12,34,8.80
2010,02,22,12,35,8.80
2010,02,22,12,36,8.80
2010,02,22,12,37,8.80
2010,02,22,12,38,8.80
2010,02,22,12,39,8.80
2010,02,22,12,40,8.80
2010,02,22,12,41,8.80
2010,02,22,12,42,8.80
2010,02,22,12,43,8.80
2010,02,22,12,44,8.80
2010,02,22,12,45,8.80
2010,02,22,12,46,8.80
2010,02,22,12,47,8.80
2010,02,22,12,48,8.80
2010,02,22,12,49,8.80
2010,02,22,12,50,8.90
2010,02,22,12,51,8.90
2010,02,22,12,52,8.90
2010,02,22,12,53,8.90
2010,02,22,12,54,9.00
2010,02,22,12,55,9.00
2010,02,22,12,56,9.00
2010,02,22,12,57,9.00
2010,02,22,12,58,9.00
2010,02,22,12,59,9.10
2010,02,22,13,00,9.10
2010,02,22,13,01,9.10
2010,02,22,13,02,9.10
2010,02,22,13,03,9.10
2010,02,22,13,04,9.10
2010,02,22,13,05,9.20
2010,02,22,13,06,9.20
2010,02,22,13,07,9.20
2010,02,22,13,08,9.20
2010,02,22,13,09,9.20
2010,02,22,13,10,9.20
2010,02,22,13,11,9.20
2010,02,22,13,12,9.20
2010,02,22,13,13,9.20
2010,02,22,13,14,9.20
2010,02,22,13,15,9.30
2010,02,22,13,16,9.30
2010,02,22,13,17,9.30
2010,02,22,13,18,9.30
2010,02,22,13,19,9.40
2010,02,22,13,20,9.40
2010,02,22,13,21,9.40
2010,02,22,13,22,9.50
2010,02,22,13,23,9.40
2010,02,22,13,24,9.50
2010,02,22,13,25,9.50
2010,02,22,13,26,9.50
2010,02,22,13,27,9.60
2010,02,22,13,28,9.60
2010,02,22,13,29,9.60
2010,02,22,13,30,9.60
2010,02,22,13,31,9.60
2010,02,22,13,32,9.60
2010,02,22,13,33,9.60
2010,02,22,13,34,9.60
2010,02,22,13,35,9.70
2010,02,22,13,36,9.70
2010,02,22,13,37,9.70
2010,02,22,13,38,9.80
2010,02,22,13,39,9.80
2010,02,22,13,40,9.80
2010,02,22,13,41,9.80
2010,02,22,13,42,9.70
2010,02,22,13,43,9.70
2010,02,22,13,44,9.70
2010,02,22,13,45,9.70
2010,02,22,13,46,9.70
2010,02,22,13,47,9.80
2010,02,22,13,48,9.80
2010,02,22,13,49,9.80
2010,02,22,13,50,9.80
2010,02,22,13,51,9.80
2010,02,22,13,52,9.80
2010,02,22,13,53,9.80
2010,02,22,13,54,9.80
2010,02,22,13,55,9.70
2010,02,22,13,56,9.70
2010,02,22,13,57,9.60
2010,02,22,13,58,9.60
2010,02,22,13,59,9.60
2010,02,22,14,00,9.50
2010,02,22,14,01,9.50
2010,02,22,14,02,9.50
2010,02,22,14,03,9.50
2010,02,22,14,04,9.50
2010,02,22,14,05,9.40
2010,02,22,14,06,9.40
2010,02,22,14,07,9.30
2010,02,22,14,08,9.30
2010,02,22,14,09,9.30
2010,02,22,14,10,9.30
2010,02,22,14,11,9.20
2010,02,22,14,12,9.10
2010,02,22,14,13,9.10
2010,02,22,14,14,9.10
2010,02,22,14,15,9.10
2010,02,22,14,16,9.10
2010,02,22,14,17,9.10
2010,02,22,14,18,9.10
2010,02,22,14,19,9.20
2010,02,22,14,20,9.20
2010,02,22,14,21,9.30
2010,02,22,14,22,9.30
2010,02,22,14,23,9.30
2010,02,22,14,24,9.30
2010,02,22,14,25,9.30
2010,02,22,14,26,9.30
2010,02,22,14,27,9.30
2010,02,22,14,28,9.20
2010,02,22,14,29,9.20
2010,02,22,14,30,9.10
2010,02,22,14,31,9.00
2010,02,22,14,32,8.90
2010,02,22,14,33,8.80
2010,02,22,14,34,8.70
2010,02,22,14,35,8.70
2010,02,22,14,36,8.60
2010,02,22,14,37,8.60
2010,02,22,14,38,8.60
2010,02,22,14,39,8.60
2010,02,22,14,40,8.60
2010,02,22,14,41,8.60
2010,02,22,14,42,8.70
2010,02,22,14,43,8.80
2010,02,22,14,44,8.80
2010,02,22,14,45,8.80
2010,02,22,14,46,8.70
2010,02,22,14,47,8.70
2010,02,22,14,48,8.70
2010,02,22,14,49,8.70
2010,02,22,14,50,8.70
2010,02,22,14,51,8.80
2010,02,22,14,52,8.90
2010,02,22,14,53,8.90
2010,02,22,14,54,9.00
2010,02,22,14,55,9.00
2010,02,22,14,56,9.00
2010,02,22,14,57,8.90
2010,02,22,14,58,8.80
2010,02,22,14,59,8.70
2010,02,22,15,00,8.60
2010,02,22,15,01,8.60
2010,02,22,15,02,8.60
2010,02,22,15,03,8.60
2010,02,22,15,04,8.60
2010,02,22,15,05,8.60
2010,02,22,15,06,8.60
2010,02,22,15,07,8.60
2010,02,22,15,08,8.60
2010,02,22,15,09,8.50
2010,02,22,15,10,8.50
2010,02,22,15,11,8.40
2010,02,22,15,12,8.40
2010,02,22,15,13,8.30
2010,02,22,15,14,8.30
2010,02,22,15,15,8.30
2010,02,22,15,16,8.30
2010,02,22,15,17,8.30
2010,02,22,15,18,8.20
2010,02,22,15,19,8.20
2010,02,22,15,20,8.20
2010,02,22,15,21,8.20
2010,02,22,15,22,8.20
2010,02,22,15,23,8.20
2010,02,22,15,24,8.20
2010,02,22,15,25,8.20
2010,02,22,15,26,8.20
2010,02,22,15,27,8.20
2010,02,22,15,28,8.20
2010,02,22,15,29,8.20
2010,02,22,15,30,8.20
2010,02,22,15,31,8.30
2010,02,22,15,32,8.20
2010,02,22,15,33,8.20
2010,02,22,15,34,8.20
2010,02,22,15,35,8.10
2010,02,22,15,36,8.10
2010,02,22,15,37,8.10
2010,02,22,15,38,8.10
2010,02,22,15,39,8.10
2010,02,22,15,40,8.10
2010,02,22,15,41,8.10
2010,02,22,15,42,8.10
2010,02,22,15,43,8.10
2010,02,22,15,44,8.10
2010,02,22,15,45,8.10
2010,02,22,15,46,8.10
